Flag Weather past 2 weeks in Hamamatsu, Japan

Now
60 °F

Light rain. Cloudy.


Feels Like: 60 °F
Forecast: 50 / 63 °F
Wind: 14 mph from Northeast

Location: Omaezaki

Current Time: Nov 26, 2014 at 3:20:20 PM

Latest Report: Nov 26, 2014 at 2:00 PM


Visibility: 13 mi

Pressure: 29.82 "Hg

Humidity: 76%

Dew point: 53 °F

Location of HamamatsuLocation

Historic Weather in Hamamatsu — Graph

°F

Hamamatsu temperature yesterday

Maximum temperature yesterday: 63 °F (at 3:00 PM)
Minimum temperature yesterday: 55 °F (at 8:00 AM)
Average temperature yesterday: 58 °F

Past Weeks' High & Low Weather Summary

 TemperatureHumidityPressure
High69 °F (Nov 12, 1:00 PM)100% (Nov 12, 8:00 AM)30.32 "Hg (Nov 12, 8:00 AM)
Low45 °F (Nov 16, 6:00 AM)30% (Nov 18, 4:00 PM)29.69 "Hg (Nov 12, 3:00 PM)
Average56 °F66%30.08 "Hg
* Reported Nov 11 2:00 PM — Nov 26 2:00 PM, Hamamatsu, Weather by CustomWeather, © 2014

Note: Actual official high and low records may vary slightly from our data, if they occured in-between our weather recording intervals... More about our weather records

Advertising

Hamamatsu weather history for previous 24 hours

 ConditionsComfort  
Time TempWeatherWind HumidityBarometerVisibility
2:00 PM
Nov 26
60 °FLight rain. Cloudy.14 mph76%29.82 "Hg12 mi
1:00 PM61 °FLight rain. Cloudy.14 mph77%29.82 "Hg12 mi
12:00 PM61 °FCool.14 mph75%29.85 "Hg12 mi
11:00 AM61 °FCool.17 mph76%29.86 "Hg12 mi
10:00 AM61 °FCool.15 mph73%29.87 "Hg12 mi
9:00 AM60 °FCool.17 mph76%29.90 "Hg12 mi
8:00 AM60 °FCool.18 mph74%29.89 "Hg12 mi
7:00 AM60 °FCool.21 mph72%29.88 "Hg12 mi
6:00 AM60 °FCool.22 mph77%29.87 "Hg12 mi
5:00 AM59 °FCool.22 mph80%29.86 "Hg12 mi
4:00 AM59 °FCool.20 mph82%29.85 "Hg12 mi
3:00 AM58 °FCool.20 mph82%29.85 "Hg12 mi
2:00 AM58 °FLight rain. Overcast.20 mph86%29.87 "Hg12 mi
1:00 AM58 °FLight rain. Overcast.18 mph88%29.87 "Hg12 mi
12:00 AM58 °FLight rain. Overcast.21 mph91%29.87 "Hg11 mi
11:00 PM
Nov 25
58 °FCool.23 mph86%29.87 "Hg12 mi
10:00 PM57 °FCool.21 mph92%29.88 "Hg12 mi
9:00 PM57 °FLight rain. Overcast.16 mph95%29.89 "Hg6 mi
8:00 PM58 °FLight rain. Overcast.15 mph97%29.88 "Hg6 mi
7:00 PM58 °FLight rain. Overcast.17 mph100%29.88 "Hg2 mi
6:00 PM58 °FRain. Overcast.21 mph100%29.85 "Hg1 mi
5:00 PM60 °FRain. Overcast.13 mph100%29.84 "Hg1 mi
4:00 PM61 °FRain. Cloudy.13 mph99%29.83 "Hg1 mi
3:00 PM63 °FLight rain. Cloudy.12 mph97%29.82 "Hg2 mi
Weather by CustomWeather, © 2014

See weather overviewHow to use our weather pages